Regional Weather Roundup
Issued by NWS

Home | Current Version | Previous Version | Graphics & Text | Print | Product List | Glossary On
Versions: 1 2 3 4 5 6 7 8 9 10 11 12 13 14 15 16 17 18 19 20 21 22 23 24 25 26 27 28 29 30 31 32 33 34 35 36 37 38 39 40 41 42 43 44 45 46 47 48 49 50
000
ASUS43 KLMK 242202
RWRKY
KENTUCKY REGIONAL WEATHER ROUNDUP
NATIONAL WEATHER SERVICE LOUISVILLE KY
600 PM EDT THU APR 24 2014

NOTE "FAIR" INDICATES FEW OR NO CLOUDS BELOW 12,000 FEET
WITH NO SIGNIFICANT WEATHER AND/OR OBSTRUCTIONS TO VISIBILITY.

KYZ001>023-026-027-061>063-070>075-242300-
WESTERN AND SOUTH CENTRAL KENTUCKY

CITY           SKY/WX    TMP DP  RH WIND       PRES   REMARKS
PADUCAH        PTSUNNY   78  49  35 S14       29.70F
HENDERSON      PTSUNNY   75  41  29 S8        29.74F
OWENSBORO      PTSUNNY   76  39  26 S13G21    29.78F
HOPKINSVILLE   PTSUNNY   79  41  26 S8        29.77F
BOWLING GREEN  PTSUNNY   76  39  26 S8        29.83F
GLASGOW        NOT AVBL
$$

KYZ024-025-028>034-038-045-046-053-242300-
NORTH CENTRAL KENTUCKY

CITY           SKY/WX    TMP DP  RH WIND       PRES   REMARKS
LOUISVILLE/SDF PTSUNNY   74  40  29 SE12      29.82F
LOUISVILLE/LOU PTSUNNY   75  38  26 SE7       29.83F
FORT KNOX      CLOUDY    76  38  25 S14       29.82F
$$

KYZ035>037-039>044-047>052-055>060-089>105-242300-
NORTHEAST KENTUCKY

CITY           SKY/WX    TMP DP  RH WIND       PRES   REMARKS
LEXINGTON      PTSUNNY   72  38  29 SE7       29.87F
COVINGTON      PTSUNNY   66  33  29 SE9       29.89F
FRANKFORT      MOSUNNY   69  39  33 SE8       29.86F
$$

KYZ054-064>069-076>088-106>120-242300-
SOUTHEAST KENTUCKY

CITY           SKY/WX    TMP DP  RH WIND       PRES   REMARKS
JACKSON        PTSUNNY   75  28  17 CALM      29.91F
LONDON         PTSUNNY   76  34  21 SE7       29.87F
SOMERSET       NOT AVBL
MIDDLESBORO    NOT AVBL
MONTICELLO     CLOUDY    77  38  24 SW6       29.87F
$$




USA.gov is the U.S. government's official web portal to all federal, state and local government web resources and services.